sat.trackr.live / text

‹ back to catalog

SITRO-TD-4

NORAD 67265 · 2025-313T

PAYLOAD ACTIVE UNKNOWN

§ Identity

Operator
Country
CIS
Launch date
2025-12-28
Launch site
VOSTO
Launch vehicle
Mass (kg)
RCS (m²)

External: N2YO · Heavens-Above · Gunter

§ Orbital elements

Epoch: 2026-05-24T22:16:58.340064Z

Period
94.56 min
Inclination
97.3935°
Eccentricity
0.0016159
Mean motion
15.22885423 rev/d
Perigee alt
486.0 km
Apogee alt
508.3 km
Semi-major
6,875.3 km
B*
3.4473e-4
RAAN
219.9590°
Arg perigee
88.2641°
Mean anomaly
272.0447°
Rev number
2,241

§ Raw data

SITRO-TD-41 67265U 25313T   26144.92845301  .00008039  00000+0  34473-3 0  99922 67265  97.3935 219.9590 0016159  88.2641 272.0447 15.22885423 22415

JSON: /api/v1/satellites/67265 · /tle

For live sub-satellite position, see the globe view (requires WebGL).

§ Visibility from observer

Set your observer location to see the next 7 days of passes ≥ 10°. The values pass through the URL so the page stays shareable.

No JS? Fill the form by hand. The geolocation button needs JavaScript.